| time (UTC) | temp C | wind direction | speed KPH | gust KPH | rain 1hr cm | rain 24hr cm | rain mn cm | humidity % | barometer mb |
| 20260507134553 | 13 | 315 | 3.2 | 3.2 | 0.00 | 0.43 | 0.43 | 74 | 1001.5 |
| 20260507134049 | 12 | 12 | 3.2 | 3.2 | 0.00 | 0.43 | 0.43 | 72 | 1001.5 |
| 20260507133546 | 12 | 334 | 1.6 | 4.8 | 0.00 | 0.43 | 0.43 | 73 | 1001.5 |
| 20260507133044 | 12 | 314 | 3.2 | 3.2 | 0.00 | 0.43 | 0.43 | 76 | 1001.4 |
| 20260507132540 | 12 | 289 | 3.2 | 3.2 | 0.00 | 0.43 | 0.43 | 79 | 1001.6 |
| 20260507132036 | 11 | 289 | 4.8 | 4.8 | 0.00 | 0.43 | 0.43 | 79 | 1001.6 |
| 20260507131533 | 11 | 354 | 3.2 | 4.8 | 0.00 | 0.43 | 0.43 | 76 | 1001.6 |
| 20260507131031 | 11 | 40 | 4.8 | 6.4 | 0.00 | 0.43 | 0.43 | 77 | 1001.6 |
| 20260507130527 | 11 | 318 | 1.6 | 1.6 | 0.00 | 0.43 | 0.43 | 82 | 1001.5 |
| 20260507130026 | 11 | 255 | 8.0 | 11.3 | 0.00 | 0.43 | 0.43 | 81 | 1001.8 |
| 20260507125524 | 11 | 347 | 4.8 | 6.4 | 0.00 | 0.43 | 0.43 | 79 | 1001.6 |
| 20260507125021 | 11 | 15 | 1.6 | 6.4 | 0.00 | 0.43 | 0.43 | 81 | 1001.6 |
| 20260507124517 | 11 | 323 | 3.2 | 4.8 | 0.00 | 0.43 | 0.43 | 80 | 1001.5 |
| 20260507124016 | 11 | 13 | 1.6 | 3.2 | 0.00 | 0.43 | 0.43 | 80 | 1001.7 |
| 20260507123513 | 10 | 7 | 3.2 | 9.7 | 0.00 | 0.43 | 0.43 | 82 | 1001.5 |
| 20260507123010 | 10 | 24 | 3.2 | 14.5 | 0.00 | 0.43 | 0.43 | 82 | 1001.7 |
| 20260507122504 | 10 | 266 | 3.2 | 6.4 | 0.00 | 0.43 | 0.43 | 82 | 1001.9 |
| 20260507122001 | 10 | 268 | 4.8 | 4.8 | 0.00 | 0.43 | 0.43 | 82 | 1001.9 |
| 20260507121456 | 10 | 223 | 3.2 | 6.4 | 0.00 | 0.43 | 0.43 | 83 | 1001.8 |
| 20260507120953 | 10 | 15 | 1.6 | 6.4 | 0.00 | 0.43 | 0.43 | 88 | 1001.8 |
| 20260507120449 | 10 | 356 | 0.0 | 4.8 | 0.00 | 0.43 | 0.43 | 83 | 1002.0 |
| 20260507115946 | 10 | 320 | 6.4 | 11.3 | 0.00 | 0.43 | 0.43 | 85 | 1002.1 |
| 20260507115442 | 10 | 340 | 0.0 | 3.2 | 0.00 | 0.43 | 0.43 | 85 | 1001.7 |
| 20260507114938 | 10 | 30 | 3.2 | 4.8 | 0.00 | 0.43 | 0.43 | 89 | 1001.8 |
| 20260507114434 | 9 | 3 | 3.2 | 3.2 | 0.00 | 0.43 | 0.43 | 89 | 1002.3 |
| 20260507113932 | 10 | 24 | 1.6 | 1.6 | 0.00 | 0.43 | 0.43 | 87 | 1002.4 |
| 20260507113429 | 9 | 319 | 0.0 | 14.5 | 0.00 | 0.43 | 0.43 | 88 | 1002.2 |
| 20260507112926 | 9 | 339 | 1.6 | 11.3 | 0.00 | 0.43 | 0.43 | 89 | 1001.9 |
| 20260507112424 | 8 | 24 | 1.6 | 3.2 | 0.00 | 0.43 | 0.43 | 91 | 1002.2 |
| 20260507111920 | 8 | 335 | 0.0 | 1.6 | 0.00 | 0.43 | 0.43 | 94 | 1002.2 |
| 20260507111418 | 8 | 306 | 1.6 | 4.8 | 0.00 | 0.43 | 0.43 | 94 | 1001.8 |
| 20260507110914 | 8 | 297 | 1.6 | 3.2 | 0.00 | 0.43 | 0.43 | 94 | 1001.9 |
| 20260507110410 | 8 | 325 | 0.0 | 4.8 | 0.00 | 0.43 | 0.43 | 95 | 1001.7 |
| 20260507105907 | 8 | 350 | 0.0 | 1.6 | 0.00 | 0.43 | 0.43 | 96 | 1001.6 |
| 20260507105403 | 8 | 173 | 3.2 | 4.8 | 0.00 | 0.43 | 0.43 | 96 | 1001.8 |
| 20260507104900 | 8 | 308 | 1.6 | 3.2 | 0.00 | 0.43 | 0.43 | 96 | 1001.9 |
| 20260507104357 | 7 | 342 | 0.0 | 3.2 | 0.00 | 0.43 | 0.43 | 96 | 1001.4 |
| 20260507103853 | 8 | 340 | 0.0 | 1.6 | 0.00 | 0.43 | 0.43 | 98 | 1001.3 |
| 20260507103350 | 7 | 334 | 0.0 | 0.0 | 0.00 | 0.43 | 0.43 | 98 | 1001.6 |
| 20260507102846 | 7 | 3 | 0.0 | 1.6 | 0.00 | 0.43 | 0.43 | 99 | 1001.7 |
| 20260507102343 | 7 | 7 | 1.6 | 3.2 | 0.00 | 0.43 | 0.43 | 99 | 1001.4 |
| 20260507101839 | 6 | 340 | 0.0 | 1.6 | 0.00 | 0.43 | 0.43 | 99 | 1001.4 |
| 20260507101333 | 6 | 337 | 1.6 | 3.2 | 0.00 | 0.43 | 0.43 | 99 | 1001.4 |
| 20260507100831 | 6 | 339 | 0.0 | 0.0 | 0.00 | 0.43 | 0.43 | 99 | 1001.2 |
| 20260507100329 | 6 | 342 | 0.0 | 0.0 | 0.00 | 0.43 | 0.43 | 99 | 1001.5 |
| 20260507095827 | 6 | 333 | 0.0 | 0.0 | 0.00 | 0.43 | 0.43 | 99 | 1001.6 |
| 20260507095323 | 6 | 349 | 0.0 | 1.6 | 0.00 | 0.43 | 0.43 | 99 | 1001.7 |
| 20260507094820 | 6 | 352 | 0.0 | 0.0 | 0.00 | 0.43 | 0.43 | 99 | 1001.5 |
| 20260507094316 | 6 | 347 | 0.0 | 0.0 | 0.00 | 0.43 | 0.43 | 99 | 1001.5 |
| 20260507093813 | 6 | 313 | 0.0 | 0.0 | 0.00 | 0.43 | 0.43 | 99 | 1001.6 |
| 20260507093312 | 6 | 343 | 0.0 | 0.0 | 0.00 | 0.43 | 0.43 | 99 | 1001.5 |
| 20260507092810 | 6 | 331 | 0.0 | 0.0 | 0.00 | 0.43 | 0.43 | 99 | 1001.7 |
| 20260507092307 | 6 | 326 | 0.0 | 0.0 | 0.00 | 0.43 | 0.43 | 99 | 1001.8 |
| 20260507091802 | 6 | 278 | 3.2 | 3.2 | 0.00 | 0.43 | 0.43 | 99 | 1001.5 |
| 20260507091259 | 6 | 320 | 0.0 | 0.0 | 0.00 | 0.43 | 0.43 | 99 | 1001.1 |
| 20260507090759 | 6 | 333 | 0.0 | 3.2 | 0.00 | 0.43 | 0.43 | 99 | 1001.0 |
| 20260507090256 | 6 | 347 | 0.0 | 3.2 | 0.00 | 0.43 | 0.43 | 99 | 1001.0 |
| 20260507085753 | 6 | 329 | 0.0 | 0.0 | 0.00 | 0.43 | 0.43 | 99 | 1001.1 |
| 20260507085250 | 6 | 326 | 0.0 | 4.8 | 0.00 | 0.43 | 0.43 | 99 | 1001.1 |
| 20260507084747 | 7 | 325 | 1.6 | 3.2 | 0.00 | 0.43 | 0.43 | 98 | 1000.8 |
| 20260507084243 | 7 | 316 | 0.0 | 3.2 | 0.00 | 0.43 | 0.43 | 99 | 1001.1 |
| 20260507083741 | 7 | 10 | 0.0 | 3.2 | 0.00 | 0.43 | 0.43 | 99 | 1001.4 |
| 20260507083237 | 7 | 327 | 0.0 | 4.8 | 0.00 | 0.43 | 0.43 | 98 | 1000.8 |
| 20260507082733 | 7 | 65 | 3.2 | 6.4 | 0.00 | 0.43 | 0.43 | 99 | 1000.9 |
| 20260507082229 | 7 | 7 | 3.2 | 6.4 | 0.00 | 0.43 | 0.43 | 99 | 1001.0 |
| 20260507081726 | 7 | 346 | 0.0 | 3.2 | 0.00 | 0.43 | 0.43 | 99 | 1001.0 |
| 20260507081222 | 7 | 323 | 3.2 | 6.4 | 0.00 | 0.43 | 0.43 | 99 | 1000.7 |
| 20260507080719 | 7 | 347 | 0.0 | 4.8 | 0.00 | 0.43 | 0.43 | 99 | 1000.7 |
| 20260507080215 | 7 | 330 | 6.4 | 6.4 | 0.00 | 0.43 | 0.43 | 99 | 1000.9 |
| 20260507075711 | 7 | 313 | 3.2 | 3.2 | 0.00 | 0.43 | 0.43 | 99 | 1001.1 |
| 20260507075208 | 7 | 339 | 0.0 | 6.4 | 0.00 | 0.43 | 0.43 | 99 | 1001.2 |
| 20260507074703 | 7 | 348 | 6.4 | 11.3 | 0.00 | 0.43 | 0.43 | 99 | 1000.8 |
| 20260507074202 | 7 | 341 | 0.0 | 3.2 | 0.00 | 0.43 | 0.43 | 99 | 1000.8 |
| 20260507073658 | 8 | 339 | 0.0 | 0.0 | 0.00 | 0.43 | 0.43 | 99 | 1000.8 |
| 20260507073154 | 8 | 318 | 1.6 | 1.6 | 0.00 | 0.43 | 0.43 | 99 | 1000.7 |
| 20260507072653 | 8 | 311 | 1.6 | 3.2 | 0.00 | 0.43 | 0.43 | 99 | 1000.7 |
| 20260507072150 | 8 | 344 | 0.0 | 3.2 | 0.00 | 0.43 | 0.43 | 99 | 1000.7 |
| 20260507071647 | 8 | 324 | 0.0 | 0.0 | 0.00 | 0.43 | 0.43 | 99 | 1000.6 |
| 20260507071143 | 8 | 326 | 0.0 | 3.2 | 0.13 | 0.43 | 0.43 | 99 | 1000.3 |
| 20260507070640 | 8 | 348 | 0.0 | 3.2 | 0.13 | 0.43 | 0.43 | 99 | 1000.5 |
| 20260507070137 | 8 | 338 | 0.0 | 0.0 | 0.00 | 0.41 | 0.41 | 99 | 1000.6 |
| 20260507065633 | 8 | 329 | 0.0 | 0.0 | 0.00 | 0.41 | 0.41 | 99 | 1000.2 |
| 20260507065130 | 8 | 323 | 0.0 | 4.8 | 0.00 | 0.41 | 0.41 | 99 | 1000.3 |
| 20260507064628 | 8 | 338 | 0.0 | 1.6 | 0.00 | 0.41 | 0.41 | 99 | 1000.2 |
| 20260507064127 | 8 | 111 | 3.2 | 3.2 | 0.00 | 0.41 | 0.41 | 99 | 1000.0 |
| 20260507063624 | 8 | 340 | 0.0 | 1.6 | 0.00 | 0.41 | 0.41 | 99 | 1000.3 |
| 20260507063121 | 8 | 327 | 0.0 | 0.0 | 0.00 | 0.41 | 0.41 | 99 | 1000.0 |
| 20260507062617 | 8 | 312 | 0.0 | 1.6 | 0.18 | 0.41 | 0.41 | 99 | 1000.1 |
| 20260507062115 | 8 | 347 | 0.0 | 1.6 | 0.18 | 0.41 | 0.41 | 99 | 1000.0 |
| 20260507061613 | 8 | 357 | 1.6 | 4.8 | 0.00 | 0.38 | 0.38 | 99 | 999.8 |
| 20260507061111 | 8 | 339 | 0.0 | 1.6 | 0.13 | 0.38 | 0.38 | 99 | 1000.2 |
| 20260507060609 | 8 | 304 | 3.2 | 4.8 | 0.48 | 0.38 | 0.38 | 99 | 1000.6 |
| 20260507060105 | 8 | 185 | 1.6 | 4.8 | 0.48 | 0.36 | 0.36 | 99 | 1000.8 |
| 20260507055600 | 9 | 282 | 4.8 | 4.8 | 0.30 | 0.30 | 0.30 | 99 | 1000.8 |
| 20260507055056 | 9 | 336 | 0.0 | 3.2 | 0.30 | 0.28 | 0.28 | 99 | 1000.9 |
| 20260507054552 | 9 | 311 | 3.2 | 9.7 | 0.30 | 0.25 | 0.25 | 99 | 1000.3 |
| 20260507054049 | 9 | 347 | 0.0 | 0.0 | 0.48 | 0.23 | 0.23 | 99 | 1000.0 |
| 20260507053547 | 9 | 325 | 0.0 | 0.0 | 0.43 | 0.20 | 0.20 | 99 | 999.5 |
| 20260507053046 | 9 | 296 | 3.2 | 3.2 | 0.13 | 0.15 | 0.15 | 99 | 999.8 |
| 20260507052543 | 9 | 9 | 1.6 | 3.2 | 0.18 | 0.13 | 0.13 | 99 | 999.8 |
| 20260507052040 | 9 | 297 | 3.2 | 4.8 | 0.18 | 0.13 | 0.13 | 99 | 999.7 |
| 20260507051537 | 10 | 346 | 0.0 | 4.8 | 0.00 | 0.10 | 0.10 | 99 | 999.9 |
| 20260507051034 | 10 | 347 | 1.6 | 6.4 | 0.00 | 0.10 | 0.10 | 99 | 1000.0 |
| 20260507050530 | 10 | 59 | 3.2 | 12.9 | 0.13 | 0.10 | 0.10 | 99 | 999.8 |
| 20260507050027 | 10 | 230 | 9.7 | 12.9 | 0.13 | 0.10 | 0.10 | 99 | 1000.0 |
| 20260507045524 | 10 | 317 | 0.0 | 4.8 | 0.18 | 0.08 | 0.08 | 99 | 1000.0 |
| 20260507045021 | 10 | 304 | 3.2 | 6.4 | 0.18 | 0.08 | 0.08 | 99 | 1000.1 |
| 20260507044518 | 10 | 317 | 0.0 | 1.6 | 0.13 | 0.05 | 0.05 | 99 | 1000.0 |
| 20260507044014 | 10 | 2 | 1.6 | 3.2 | 0.13 | 0.05 | 0.05 | 99 | 999.8 |
| 20260507043511 | 10 | 314 | 0.0 | 3.2 | 0.00 | 0.03 | 0.03 | 99 | 999.5 |
| 20260507043008 | 10 | 335 | 0.0 | 1.6 | 0.00 | 0.03 | 0.03 | 99 | 999.4 |
| 20260507042504 | 10 | 353 | 0.0 | 3.2 | 0.18 | 0.03 | 0.03 | 99 | 999.5 |
| 20260507041959 | 10 | 318 | 1.6 | 3.2 | 0.18 | 0.03 | 0.03 | 99 | 999.4 |
| 20260507041457 | 10 | 184 | 1.6 | 6.4 | 0.00 | 0.00 | 0.00 | 99 | 999.4 |
| 20260507040953 | 10 | 20 | 1.6 | 6.4 | 0.00 | 0.00 | 0.00 | 99 | 999.5 |
| 20260507040449 | 10 | 91 | 3.2 | 4.8 | 0.00 | 0.00 | 0.00 | 99 | 999.6 |
| 20260507035945 | 10 | 306 | 4.8 | 9.7 | 0.00 | 1.12 | 1.12 | 99 | 999.5 |
| 20260507035442 | 10 | 320 | 1.6 | 4.8 | 0.00 | 1.12 | 1.12 | 99 | 999.5 |
| 20260507034939 | 10 | 277 | 3.2 | 3.2 | 0.18 | 1.12 | 1.12 | 99 | 999.3 |
| 20260507034436 | 10 | 44 | 0.0 | 1.6 | 0.00 | 1.09 | 1.09 | 99 | 999.4 |
| 20260507033934 | 10 | 326 | 6.4 | 9.7 | 0.13 | 1.09 | 1.09 | 99 | 999.5 |
| 20260507033431 | 10 | 220 | 9.7 | 12.9 | 0.43 | 1.09 | 1.09 | 99 | 999.3 |
| 20260507032928 | 10 | 115 | 4.8 | 4.8 | 0.30 | 1.07 | 1.07 | 99 | 999.3 |
| 20260507032425 | 11 | 209 | 1.6 | 9.7 | 0.00 | 1.02 | 1.02 | 99 | 999.4 |
| 20260507031921 | 11 | 332 | 3.2 | 4.8 | 0.00 | 1.02 | 1.02 | 99 | 999.2 |
| 20260507031418 | 11 | 200 | 8.0 | 14.5 | 0.00 | 1.02 | 1.02 | 99 | 999.3 |
| 20260507030914 | 11 | 347 | 3.2 | 12.9 | 0.00 | 1.02 | 1.02 | 99 | 999.1 |
| 20260507030412 | 11 | 251 | 8.0 | 12.9 | 0.00 | 1.02 | 1.02 | 99 | 999.5 |
| 20260507025909 | 11 | 210 | 8.0 | 16.1 | 0.00 | 1.02 | 1.02 | 99 | 999.5 |
| 20260507025406 | 11 | 137 | 6.4 | 12.9 | 0.00 | 1.02 | 1.02 | 99 | 999.5 |
| 20260507024904 | 11 | 156 | 6.4 | 12.9 | 0.00 | 1.02 | 1.02 | 99 | 999.7 |
| 20260507024401 | 11 | 215 | 4.8 | 9.7 | 0.00 | 1.02 | 1.02 | 99 | 999.8 |
| 20260507023857 | 11 | 262 | 8.0 | 11.3 | 0.00 | 1.02 | 1.02 | 99 | 999.9 |
| 20260507023353 | 11 | 147 | 6.4 | 11.3 | 0.00 | 1.02 | 1.02 | 99 | 1000.0 |
| 20260507022851 | 11 | 197 | 9.7 | 11.3 | 0.00 | 1.02 | 1.02 | 99 | 1000.1 |
| 20260507022347 | 11 | 227 | 6.4 | 12.9 | 0.00 | 1.02 | 1.02 | 99 | 1000.1 |
| 20260507021843 | 11 | 71 | 4.8 | 16.1 | 0.00 | 1.02 | 1.02 | 99 | 1000.2 |
| 20260507021339 | 11 | 281 | 3.2 | 16.1 | 0.18 | 1.02 | 1.02 | 99 | 1000.3 |
| 20260507020837 | 11 | 159 | 11.3 | 16.1 | 0.18 | 1.02 | 1.02 | 99 | 1000.5 |
| 20260507020333 | 11 | 278 | 4.8 | 20.9 | 0.00 | 0.99 | 0.99 | 99 | 1000.4 |
| 20260507015830 | 11 | 287 | 4.8 | 11.3 | 0.00 | 0.99 | 0.99 | 99 | 1000.5 |
| 20260507015328 | 11 | 81 | 4.8 | 20.9 | 0.00 | 0.99 | 0.99 | 99 | 1000.8 |
| 20260507014825 | 11 | 140 | 8.0 | 11.3 | 0.13 | 0.99 | 0.99 | 99 | 1000.7 |
| 20260507014321 | 11 | 320 | 4.8 | 9.7 | 0.13 | 0.99 | 0.99 | 99 | 1000.9 |
| 20260507013818 | 11 | 150 | 8.0 | 11.3 | 0.00 | 0.97 | 0.97 | 99 | 1001.0 |
| 20260507013315 | 11 | 166 | 1.6 | 6.4 | 0.00 | 0.97 | 0.97 | 99 | 1001.2 |
| 20260507012813 | 11 | 113 | 3.2 | 12.9 | 0.18 | 0.97 | 0.97 | 99 | 1001.3 |
| 20260507012309 | 11 | 286 | 9.7 | 11.3 | 0.18 | 0.97 | 0.97 | 99 | 1001.2 |
| 20260507011806 | 11 | 86 | 6.4 | 9.7 | 0.00 | 0.94 | 0.94 | 99 | 1001.4 |
| 20260507011302 | 11 | 249 | 3.2 | 16.1 | 0.00 | 0.94 | 0.94 | 99 | 1001.4 |
| 20260507010801 | 11 | 355 | 9.7 | 24.1 | 0.00 | 0.94 | 0.94 | 99 | 1001.6 |
| 20260507010258 | 11 | 200 | 6.4 | 9.7 | 0.00 | 0.94 | 0.94 | 99 | 1001.5 |
| 20260507005756 | 11 | 205 | 14.5 | 25.7 | 0.00 | 0.94 | 0.94 | 99 | 1001.8 |
| 20260507005252 | 11 | 282 | 3.2 | 11.3 | 0.00 | 0.94 | 0.94 | 99 | 1001.7 |
| 20260507004748 | 11 | 20 | 4.8 | 33.8 | 0.00 | 0.94 | 0.94 | 99 | 1001.9 |
| 20260507004246 | 11 | 80 | 8.0 | 12.9 | 0.00 | 0.94 | 0.94 | 99 | 1001.8 |
| 20260507003742 | 11 | 231 | 6.4 | 20.9 | 0.00 | 0.94 | 0.94 | 99 | 1001.8 |
| 20260507003237 | 11 | 241 | 16.1 | 25.7 | 0.00 | 0.94 | 0.94 | 99 | 1001.9 |
| 20260507002734 | 11 | 299 | 8.0 | 14.5 | 0.00 | 0.94 | 0.94 | 99 | 1002.1 |
| 20260507002230 | 11 | 91 | 1.6 | 12.9 | 0.13 | 0.94 | 0.94 | 99 | 1002.2 |
| 20260507001727 | 11 | 150 | 6.4 | 16.1 | 0.13 | 0.94 | 0.94 | 99 | 1001.9 |
| 20260507001224 | 11 | 202 | 4.8 | 6.4 | 0.00 | 0.91 | 0.91 | 99 | 1002.1 |
| 20260507000720 | 11 | 240 | 3.2 | 17.7 | 0.00 | 0.91 | 0.91 | 99 | 1002.0 |
| 20260507000216 | 11 | 319 | 6.4 | 16.1 | 0.00 | 0.91 | 0.91 | 99 | 1002.0 |
| 20260506235713 | 11 | 306 | 3.2 | 9.7 | 0.00 | 0.91 | 0.91 | 99 | 1002.0 |
| 20260506235208 | 12 | 297 | 8.0 | 14.5 | 0.00 | 0.91 | 0.91 | 99 | 1002.1 |
| 20260506234706 | 11 | 222 | 4.8 | 14.5 | 0.18 | 0.91 | 0.91 | 99 | 1002.0 |
| 20260506234203 | 11 | 205 | 9.7 | 11.3 | 0.18 | 0.91 | 0.91 | 99 | 1002.1 |
| 20260506233701 | 11 | 215 | 8.0 | 14.5 | 0.00 | 0.89 | 0.89 | 99 | 1002.0 |
| 20260506233157 | 11 | 203 | 20.9 | 29.0 | 0.13 | 0.89 | 0.89 | 99 | 1002.2 |
| 20260506232653 | 12 | 168 | 8.0 | 22.5 | 0.18 | 0.86 | 0.86 | 99 | 1002.0 |
| 20260506232148 | 12 | 176 | 11.3 | 16.1 | 0.18 | 0.86 | 0.86 | 99 | 1002.2 |
| 20260506231646 | 12 | 321 | 6.4 | 17.7 | 0.18 | 0.84 | 0.84 | 99 | 1001.9 |
| 20260506231145 | 12 | 166 | 11.3 | 16.1 | 0.48 | 0.84 | 0.84 | 99 | 1002.0 |
| 20260506230641 | 12 | 263 | 4.8 | 20.9 | 0.43 | 0.81 | 0.81 | 99 | 1002.0 |
| 20260506230138 | 12 | 164 | 4.8 | 24.1 | 0.30 | 0.76 | 0.76 | 99 | 1002.1 |
| 20260506225634 | 11 | 260 | 6.4 | 12.9 | 0.79 | 0.74 | 0.74 | 99 | 1002.0 |
| 20260506225131 | 11 | 237 | 9.7 | 12.9 | 0.61 | 0.69 | 0.69 | 99 | 1002.4 |
| 20260506224628 | 11 | 277 | 8.0 | 17.7 | 0.30 | 0.61 | 0.61 | 99 | 1002.3 |
| 20260506224124 | 11 | 197 | 4.8 | 20.9 | 0.30 | 0.58 | 0.58 | 99 | 1002.4 |
| 20260506223620 | 11 | 51 | 4.8 | 12.9 | 0.18 | 0.53 | 0.53 | 99 | 1002.7 |
| 20260506223116 | 11 | 261 | 3.2 | 4.8 | 0.30 | 0.51 | 0.51 | 99 | 1002.6 |
| 20260506222614 | 11 | 155 | 3.2 | 6.4 | 0.13 | 0.48 | 0.48 | 99 | 1002.7 |
| 20260506222110 | 11 | 162 | 3.2 | 24.1 | 0.18 | 0.46 | 0.46 | 99 | 1003.0 |
| 20260506221608 | 11 | 136 | 3.2 | 6.4 | 0.30 | 0.43 | 0.43 | 99 | 1003.2 |
| 20260506221106 | 11 | 209 | 9.7 | 24.1 | 0.61 | 0.43 | 0.43 | 99 | 1002.9 |
| 20260506220602 | 11 | 233 | 3.2 | 16.1 | 0.43 | 0.38 | 0.38 | 99 | 1002.9 |
| 20260506220057 | 11 | 124 | 4.8 | 6.4 | 0.13 | 0.33 | 0.33 | 99 | 1002.9 |
| 20260506215554 | 11 | 195 | 4.8 | 12.9 | 0.18 | 0.30 | 0.30 | 99 | 1002.8 |
| 20260506215049 | 11 | 259 | 4.8 | 14.5 | 0.13 | 0.28 | 0.28 | 99 | 1002.9 |
| 20260506214547 | 11 | 291 | 6.4 | 12.9 | 0.30 | 0.28 | 0.28 | 99 | 1002.7 |
| 20260506214044 | 11 | 175 | 4.8 | 9.7 | 0.30 | 0.25 | 0.25 | 99 | 1002.7 |
| 20260506213543 | 11 | 5 | 1.6 | 4.8 | 0.13 | 0.23 | 0.23 | 99 | 1003.1 |
| 20260506213040 | 11 | 295 | 6.4 | 12.9 | 0.18 | 0.20 | 0.20 | 99 | 1003.2 |
| 20260506212536 | 11 | 175 | 9.7 | 14.5 | 0.18 | 0.18 | 0.18 | 98 | 1003.0 |
| 20260506212030 | 11 | 127 | 8.0 | 14.5 | 0.18 | 0.18 | 0.18 | 98 | 1003.1 |
| 20260506211527 | 11 | 157 | 9.7 | 14.5 | 0.13 | 0.15 | 0.15 | 98 | 1003.2 |
| 20260506211024 | 11 | 165 | 9.7 | 14.5 | 0.13 | 0.15 | 0.15 | 98 | 1003.5 |
| 20260506210521 | 11 | 153 | 3.2 | 9.7 | 0.18 | 0.13 | 0.13 | 98 | 1003.2 |
| 20260506210017 | 11 | 110 | 6.4 | 12.9 | 0.30 | 0.13 | 0.13 | 97 | 1003.0 |
| 20260506205514 | 12 | 273 | 3.2 | 6.4 | 0.30 | 0.10 | 0.10 | 97 | 1003.2 |
| 20260506205004 | 12 | 81 | 3.2 | 3.2 | 0.30 | 0.08 | 0.08 | 97 | 1003.3 |
| 20260506204502 | 12 | 271 | 3.2 | 9.7 | 0.13 | 0.05 | 0.05 | 96 | 1003.4 |
| 20260506203959 | 12 | 292 | 6.4 | 12.9 | 0.18 | 0.03 | 0.03 | 95 | 1003.5 |
| 20260506203456 | 12 | 195 | 4.8 | 9.7 | 0.18 | 0.03 | 0.03 | 95 | 1003.7 |
| 20260506202953 | 12 | 337 | 1.6 | 6.4 | 0.00 | 0.00 | 0.00 | 94 | 1003.7 |
| 20260506202450 | 12 | 242 | 4.8 | 9.7 | 0.00 | 0.00 | 0.00 | 92 | 1003.2 |
| 20260506201946 | 12 | 155 | 4.8 | 9.7 | 0.00 | 0.00 | 0.00 | 92 | 1003.2 |
| 20260506201444 | 12 | 166 | 6.4 | 14.5 | 0.00 | 0.00 | 0.00 | 91 | 1003.3 |
| 20260506200940 | 12 | 248 | 3.2 | 9.7 | 0.00 | 0.00 | 0.00 | 91 | 1003.3 |
| 20260506200436 | 12 | 288 | 4.8 | 4.8 | 0.00 | 0.00 | 0.00 | 91 | 1003.5 |
| 20260506195933 | 12 | 212 | 6.4 | 12.9 | 0.00 | 0.00 | 0.00 | 90 | 1003.0 |
| 20260506195430 | 13 | 306 | 3.2 | 14.5 | 0.00 | 0.00 | 0.00 | 90 | 1003.2 |
| 20260506194927 | 12 | 323 | 1.6 | 14.5 | 0.00 | 0.00 | 0.00 | 90 | 1003.2 |
| 20260506194424 | 13 | 166 | 4.8 | 24.1 | 0.00 | 0.00 | 0.00 | 90 | 1003.7 |
| 20260506193921 | 13 | 359 | 4.8 | 6.4 | 0.00 | 0.00 | 0.00 | 89 | 1003.3 |
| 20260506193418 | 13 | 277 | 3.2 | 4.8 | 0.00 | 0.00 | 0.00 | 88 | 1004.1 |
| 20260506192914 | 13 | 68 | 4.8 | 6.4 | 0.00 | 0.00 | 0.00 | 88 | 1004.1 |
| 20260506192411 | 13 | 296 | 9.7 | 14.5 | 0.00 | 0.00 | 0.00 | 88 | 1003.9 |
| 20260506191908 | 13 | 176 | 9.7 | 20.9 | 0.00 | 0.00 | 0.00 | 88 | 1003.7 |
| 20260506191404 | 13 | 169 | 8.0 | 22.5 | 0.00 | 0.00 | 0.00 | 88 | 1003.6 |
| 20260506190902 | 13 | 230 | 6.4 | 20.9 | 0.00 | 0.00 | 0.00 | 87 | 1003.6 |
| 20260506190358 | 13 | 312 | 4.8 | 11.3 | 0.00 | 0.00 | 0.00 | 87 | 1003.7 |
| 20260506185855 | 13 | 141 | 8.0 | 16.1 | 0.00 | 0.00 | 0.00 | 87 | 1003.8 |
| 20260506185352 | 13 | 247 | 9.7 | 14.5 | 0.00 | 0.00 | 0.00 | 87 | 1003.5 |
| 20260506184849 | 13 | 256 | 8.0 | 12.9 | 0.00 | 0.00 | 0.00 | 87 | 1003.6 |
| 20260506184346 | 13 | 89 | 6.4 | 16.1 | 0.00 | 0.00 | 0.00 | 87 | 1003.9 |
| 20260506183843 | 13 | 166 | 4.8 | 9.7 | 0.00 | 0.00 | 0.00 | 87 | 1003.8 |
| 20260506183338 | 14 | 197 | 9.7 | 12.9 | 0.00 | 0.00 | 0.00 | 86 | 1003.7 |
| 20260506182836 | 14 | 223 | 11.3 | 17.7 | 0.00 | 0.00 | 0.00 | 86 | 1003.8 |
| 20260506182333 | 14 | 101 | 4.8 | 9.7 | 0.00 | 0.00 | 0.00 | 86 | 1004.0 |
| 20260506181831 | 14 | 196 | 4.8 | 11.3 | 0.00 | 0.00 | 0.00 | 86 | 1003.9 |
| 20260506181328 | 14 | 162 | 3.2 | 14.5 | 0.00 | 0.00 | 0.00 | 86 | 1004.0 |
| 20260506180825 | 14 | 342 | 6.4 | 17.7 | 0.00 | 0.00 | 0.00 | 85 | 1004.3 |
| 20260506180321 | 14 | 137 | 8.0 | 12.9 | 0.00 | 0.00 | 0.00 | 86 | 1004.3 |
| 20260506175817 | 14 | 203 | 6.4 | 16.1 | 0.00 | 0.00 | 0.00 | 86 | 1004.3 |
| 20260506175315 | 14 | 179 | 3.2 | 12.9 | 0.00 | 0.00 | 0.00 | 86 | 1004.2 |
| 20260506174812 | 14 | 216 | 4.8 | 17.7 | 0.00 | 0.00 | 0.00 | 86 | 1004.5 |
| 20260506174309 | 14 | 133 | 6.4 | 9.7 | 0.00 | 0.00 | 0.00 | 86 | 1004.4 |
| 20260506173806 | 15 | 196 | 4.8 | 11.3 | 0.00 | 0.00 | 0.00 | 86 | 1004.4 |
| 20260506173303 | 15 | 294 | 6.4 | 12.9 | 0.00 | 0.00 | 0.00 | 86 | 1004.5 |
| 20260506172800 | 15 | 112 | 1.6 | 12.9 | 0.00 | 0.00 | 0.00 | 86 | 1004.6 |
| 20260506172256 | 15 | 9 | 3.2 | 6.4 | 0.00 | 0.00 | 0.00 | 87 | 1004.8 |
| 20260506171754 | 15 | 290 | 4.8 | 14.5 | 0.00 | 0.00 | 0.00 | 86 | 1004.8 |
| 20260506171251 | 15 | 130 | 4.8 | 11.3 | 0.00 | 0.00 | 0.00 | 86 | 1004.8 |
| 20260506170749 | 14 | 172 | 6.4 | 9.7 | 0.00 | 0.00 | 0.00 | 86 | 1004.8 |
| 20260506170245 | 15 | 196 | 9.7 | 16.1 | 0.00 | 0.00 | 0.00 | 85 | 1005.0 |
| 20260506165744 | 15 | 187 | 12.9 | 17.7 | 0.00 | 0.00 | 0.00 | 86 | 1004.9 |
| 20260506165240 | 14 | 218 | 4.8 | 9.7 | 0.00 | 0.00 | 0.00 | 87 | 1005.0 |
| 20260506164738 | 14 | 334 | 1.6 | 12.9 | 0.00 | 0.00 | 0.00 | 87 | 1005.0 |
| 20260506164234 | 14 | 182 | 6.4 | 12.9 | 0.00 | 0.00 | 0.00 | 86 | 1005.2 |
| 20260506163731 | 14 | 196 | 9.7 | 16.1 | 0.00 | 0.00 | 0.00 | 86 | 1005.2 |
| 20260506163226 | 14 | 187 | 8.0 | 12.9 | 0.00 | 0.00 | 0.00 | 87 | 1005.2 |
| 20260506162722 | 13 | 325 | 6.4 | 12.9 | 0.00 | 0.00 | 0.00 | 87 | 1005.2 |
| 20260506162220 | 14 | 151 | 9.7 | 14.5 | 0.00 | 0.00 | 0.00 | 87 | 1005.3 |
| 20260506161717 | 14 | 177 | 6.4 | 17.7 | 0.00 | 0.00 | 0.00 | 86 | 1005.3 |
| 20260506161215 | 15 | 170 | 4.8 | 20.9 | 0.00 | 0.00 | 0.00 | 86 | 1005.4 |
| 20260506160712 | 14 | 243 | 6.4 | 12.9 | 0.00 | 0.00 | 0.00 | 86 | 1005.4 |
| 20260506160208 | 15 | 171 | 9.7 | 20.9 | 0.00 | 0.00 | 0.00 | 86 | 1005.5 |
| 20260506155707 | 15 | 330 | 3.2 | 6.4 | 0.00 | 0.00 | 0.00 | 85 | 1005.5 |
| 20260506155204 | 15 | 146 | 8.0 | 11.3 | 0.00 | 0.00 | 0.00 | 85 | 1005.3 |
| 20260506153305 | 15 | 12 | 1.6 | 3.2 | 0.00 | 0.00 | 0.00 | 84 | 1005.1 |
| 20260506152802 | 15 | 315 | 4.8 | 6.4 | 0.00 | 0.00 | 0.00 | 84 | 1004.9 |
| 20260506152259 | 15 | 290 | 8.0 | 12.9 | 0.00 | 0.00 | 0.00 | 83 | 1005.0 |
| 20260506151759 | 15 | 221 | 4.8 | 6.4 | 0.00 | 0.00 | 0.00 | 82 | 1005.2 |
| 20260506151255 | 15 | 333 | 1.6 | 11.3 | 0.00 | 0.00 | 0.00 | 84 | 1005.2 |
| 20260506150751 | 15 | 151 | 6.4 | 9.7 | 0.00 | 0.00 | 0.00 | 83 | 1005.3 |
| 20260506150249 | 15 | 145 | 6.4 | 14.5 | 0.00 | 0.00 | 0.00 | 82 | 1005.3 |
| 20260506145745 | 15 | 231 | 1.6 | 6.4 | 0.00 | 0.00 | 0.00 | 83 | 1005.5 |
| 20260506145242 | 15 | 140 | 4.8 | 11.3 | 0.00 | 0.00 | 0.00 | 82 | 1005.8 |
| 20260506144739 | 15 | 148 | 3.2 | 12.9 | 0.00 | 0.00 | 0.00 | 82 | 1006.0 |
| 20260506144236 | 16 | 199 | 8.0 | 9.7 | 0.00 | 0.00 | 0.00 | 81 | 1006.2 |
| 20260506143734 | 16 | 144 | 9.7 | 16.1 | 0.00 | 0.00 | 0.00 | 80 | 1005.9 |
| 20260506143231 | 16 | 149 | 12.9 | 14.5 | 0.00 | 0.00 | 0.00 | 80 | 1005.9 |
| 20260506142730 | 16 | 231 | 4.8 | 9.7 | 0.00 | 0.00 | 0.00 | 81 | 1006.2 |
| 20260506142227 | 16 | 241 | 3.2 | 6.4 | 0.00 | 0.00 | 0.00 | 81 | 1005.9 |
| 20260506141725 | 16 | 309 | 3.2 | 4.8 | 0.00 | 0.00 | 0.00 | 81 | 1005.8 |
| 20260506141223 | 16 | 182 | 9.7 | 11.3 | 0.00 | 0.00 | 0.00 | 80 | 1005.8 |
| 20260506140721 | 16 | 112 | 4.8 | 6.4 | 0.00 | 0.00 | 0.00 | 81 | 1005.6 |
| 20260506140217 | 15 | 292 | 4.8 | 6.4 | 0.00 | 0.00 | 0.00 | 81 | 1005.9 |
| 20260506135714 | 15 | 62 | 1.6 | 4.8 | 0.00 | 0.00 | 0.00 | 81 | 1005.7 |
| 20260506135210 | 15 | 136 | 3.2 | 4.8 | 0.00 | 0.00 | 0.00 | 81 | 1005.6 |